Weather History for Brownsville, TX

Change the Weather History Date:

Thursday, March 21, 2013

  Actual Average Record
Temperature  
Mean Temperature 71 °F 70 °F  
Max Temperature 83 °F 80 °F 95 °F (1955)
Min Temperature 58 °F 61 °F 37 °F (2010)
Degree Days  
Heating Degree Days 0 1  
Month to date heating degree days 22 34  
Since 1 July heating degree days 315 537  
Cooling Degree Days 6 6  
Month to date cooling degree days 97 105  
Year to date cooling degree days 318 246  
Growing Degree Days 20 (Base 50)    
Moisture  
Dew Point 63 °F    
Average Humidity 73    
Maximum Humidity 90    
Minimum Humidity 56    
Precipitation  
Precipitation T in 0.04 in 0.50 in (1900)
Month to date precipitation 0.27 0.76  
Year to date precipitation 1.75 3.11  
Sea Level Pressure  
Sea Level Pressure 29.82 in    
Wind  
Wind Speed 12 mph (SE)    
Max Wind Speed 23 mph    
Max Gust Speed 30 mph    
Visibility 10 miles    
Events      
T = Trace of Precipitation, MM = Missing Value Source: NWS Daily Summary

Daily Weather History Graph

Daily Weather History Graph

Search for Another Location

Airport:

Trip Planner

Search our weather history database for the weather conditions in past years. The results will help you decide how hot, cold, wet, or windy it might be!

Date:

Astronomy

Mar. 21, 2013 Rise Set
Actual Time 7:32 AM CDT 7:41 PM CDT
Civil Twilight 7:09 AM CDT 8:04 PM CDT
Nautical Twilight 6:42 AM CDT 8:31 PM CDT
Astronomical Twilight 6:15 AM CDT 8:58 PM CDT
Moon 2:39 PM CDT (3/21) 3:26 AM CDT (3/21)
Length of Visible Light 12h 55m
Length of Day
12h 09m
Waxing Gibbous, 69% of the Moon is Illuminated
Mar 21
Waxing Gibbous
Mar 27
Full
Apr 2
Last Quarter
Apr 10
New
Apr 18
First Quarter

Hourly Weather History & Observations

Time (CDT) Temp. Dew Point Humidity Pressure Visibility Wind Dir Wind Speed Gust Speed Precip Events Conditions
12:53 AM 61.0 °F 57.0 °F 87% 30.04 in 10.0 mi Calm Calm - N/A   Clear
1:53 AM 60.1 °F 55.9 °F 86% 30.01 in 10.0 mi NNW 3.5 mph - 0.00 in   Partly Cloudy
2:53 AM 59.0 °F 55.9 °F 90% 29.98 in 10.0 mi Calm Calm - N/A   Partly Cloudy
3:53 AM 61.0 °F 57.9 °F 90% 29.96 in 10.0 mi Calm Calm - N/A   Overcast
4:53 AM 63.0 °F 59.0 °F 87% 29.94 in 10.0 mi ENE 3.5 mph - 0.00 in   Overcast
5:53 AM 64.0 °F 59.0 °F 84% 29.92 in 10.0 mi East 3.5 mph - N/A   Overcast
6:53 AM 64.0 °F 60.1 °F 87% 29.91 in 10.0 mi East 4.6 mph - N/A   Overcast
7:53 AM 66.0 °F 61.0 °F 84% 29.91 in 10.0 mi East 5.8 mph - N/A   Overcast
8:53 AM 70.0 °F 62.1 °F 76% 29.91 in 10.0 mi ESE 9.2 mph - N/A   Scattered Clouds
9:53 AM 73.0 °F 61.0 °F 66% 29.91 in 10.0 mi SE 15.0 mph 23.0 mph N/A   Overcast
10:53 AM 75.0 °F 61.0 °F 62% 29.91 in 10.0 mi SE 17.3 mph - N/A   Overcast
11:53 AM 77.0 °F 61.0 °F 58% 29.87 in 10.0 mi SE 18.4 mph 25.3 mph N/A   Overcast
12:53 PM 75.9 °F 62.1 °F 62% 29.83 in 10.0 mi SE 19.6 mph 26.5 mph N/A   Overcast
1:53 PM 78.1 °F 63.0 °F 60% 29.80 in 10.0 mi SSE 17.3 mph 25.3 mph N/A   Overcast
2:53 PM - - N/A% 29.77 in - North - - N/A   Unknown
3:09 PM 78.8 °F 64.4 °F 61% 29.76 in 1.5 mi SSE 19.6 mph 25.3 mph N/A   Haze
3:12 PM 78.8 °F 64.4 °F 61% 29.76 in 4.0 mi SSE 20.7 mph 26.5 mph N/A   Haze
3:29 PM 78.8 °F 64.4 °F 61% 29.75 in 10.0 mi SSE 16.1 mph 29.9 mph N/A   Overcast
3:40 PM 78.8 °F 64.4 °F 61% 29.74 in 10.0 mi SE 20.7 mph 25.3 mph N/A   Overcast
3:53 PM 77.0 °F 64.0 °F 64% 29.73 in 10.0 mi SSE 18.4 mph 25.3 mph N/A   Overcast
4:53 PM 75.0 °F 64.0 °F 69% 29.71 in 10.0 mi SSE 17.3 mph 27.6 mph N/A   Overcast
5:53 PM 73.9 °F 64.9 °F 73% 29.69 in 10.0 mi SSE 15.0 mph 25.3 mph N/A   Overcast
6:53 PM 73.9 °F 64.9 °F 73% 29.69 in 10.0 mi SSE 18.4 mph - N/A   Overcast
7:53 PM 71.1 °F 66.0 °F 84% 29.69 in 10.0 mi SE 15.0 mph - N/A   Overcast
8:18 PM 71.6 °F 66.2 °F 83% 29.71 in 10.0 mi SSE 12.7 mph - N/A   Overcast
8:53 PM 71.1 °F 66.9 °F 87% 29.71 in 10.0 mi SSE 11.5 mph - N/A   Overcast
9:48 PM 71.6 °F 66.2 °F 83% 29.72 in 10.0 mi SSE 12.7 mph - N/A   Overcast
9:53 PM 71.1 °F 66.9 °F 87% 29.72 in 10.0 mi SSE 13.8 mph - N/A   Overcast
10:41 PM 71.6 °F 68.0 °F 88% 29.73 in 10.0 mi SSE 12.7 mph - N/A   Overcast
10:53 PM 71.1 °F 68.0 °F 90% 29.73 in 10.0 mi SSE 13.8 mph - N/A   Overcast
11:21 PM 71.6 °F 68.0 °F 88% 29.71 in 10.0 mi SSE 16.1 mph - N/A   Overcast
11:53 PM 72.0 °F 68.0 °F 87% 29.70 in 10.0 mi SSE 13.8 mph - N/A   Overcast